TimeCDT,TemperatureF,Dew PointF,Humidity,Sea Level PressureIn,VisibilityMPH,Wind Direction,Wind SpeedMPH,Gust SpeedMPH,PrecipitationIn,Events,Conditions,WindDirDegrees,DateUTC
12:53 AM,46.0,39.9,79,29.86,10.0,WNW,9.2,-,0.00,,Overcast,300,2013-11-02 05:53:00
1:53 AM,45.0,39.0,80,29.88,10.0,NW,13.8,-,N/A,,Mostly Cloudy,310,2013-11-02 06:53:00
2:53 AM,45.0,39.0,80,29.90,10.0,NW,13.8,-,N/A,,Overcast,310,2013-11-02 07:53:00
3:12 AM,44.6,39.2,81,29.89,10.0,NW,16.1,25.3,N/A,,Overcast,320,2013-11-02 08:12:00
3:20 AM,44.6,37.4,76,29.90,10.0,NW,13.8,-,N/A,,Mostly Cloudy,320,2013-11-02 08:20:00
3:53 AM,42.1,37.9,85,29.92,10.0,NW,13.8,-,N/A,,Scattered Clouds,320,2013-11-02 08:53:00
4:53 AM,43.0,37.9,82,29.94,10.0,NW,12.7,-,N/A,,Overcast,320,2013-11-02 09:53:00
5:06 AM,42.8,37.4,81,29.94,10.0,NNW,12.7,-,N/A,,Overcast,330,2013-11-02 10:06:00
5:53 AM,43.0,37.9,82,29.98,10.0,NNW,11.5,-,N/A,,Overcast,330,2013-11-02 10:53:00
6:53 AM,43.0,39.0,86,30.00,10.0,NW,9.2,-,N/A,,Overcast,320,2013-11-02 11:53:00
7:53 AM,43.0,37.9,82,30.03,10.0,NW,11.5,-,N/A,,Overcast,310,2013-11-02 12:53:00
8:53 AM,43.0,39.0,86,30.06,10.0,NW,10.4,-,N/A,,Overcast,310,2013-11-02 13:53:00
9:53 AM,45.0,39.0,80,30.08,10.0,NW,13.8,-,N/A,,Overcast,320,2013-11-02 14:53:00
10:53 AM,46.0,37.0,71,30.09,10.0,NW,18.4,27.6,N/A,,Mostly Cloudy,320,2013-11-02 15:53:00
11:53 AM,48.0,36.0,63,30.11,10.0,NW,17.3,23.0,N/A,,Mostly Cloudy,310,2013-11-02 16:53:00
12:53 PM,50.0,34.0,54,30.11,10.0,NW,16.1,25.3,N/A,,Partly Cloudy,320,2013-11-02 17:53:00
1:53 PM,51.1,33.1,50,30.10,10.0,NW,12.7,26.5,N/A,,Scattered Clouds,310,2013-11-02 18:53:00
2:53 PM,52.0,30.9,45,30.11,10.0,NW,18.4,24.2,N/A,,Mostly Cloudy,320,2013-11-02 19:53:00
3:53 PM,50.0,30.9,48,30.12,10.0,WNW,10.4,-,N/A,,Mostly Cloudy,300,2013-11-02 20:53:00
4:53 PM,50.0,30.9,48,30.12,10.0,NW,10.4,-,N/A,,Mostly Cloudy,320,2013-11-02 21:53:00
5:53 PM,46.9,32.0,56,30.13,10.0,WNW,4.6,-,N/A,,Mostly Cloudy,290,2013-11-02 22:53:00
6:53 PM,44.1,30.9,60,30.14,10.0,West,3.5,-,N/A,,Partly Cloudy,270,2013-11-02 23:53:00
7:53 PM,39.0,30.9,73,30.16,10.0,West,3.5,-,N/A,,Clear,260,2013-11-03 00:53:00
8:53 PM,37.9,30.0,73,30.16,10.0,SW,3.5,-,N/A,,Clear,220,2013-11-03 01:53:00
9:53 PM,37.0,30.0,76,30.16,10.0,Calm,Calm,-,N/A,,Clear,0,2013-11-03 02:53:00
10:53 PM,37.0,30.0,76,30.16,10.0,Calm,Calm,-,N/A,,Clear,0,2013-11-03 03:53:00
11:53 PM,33.1,30.0,89,30.17,10.0,Calm,Calm,-,N/A,,Clear,0,2013-11-03 04:53:00